Simultaneous Nadir Overpasses (SNOs) Predictions

Prediction of SNOs between GOES-16 and TERRA Satellite Orbit:

Table of predicted SNOs for the next 14.0 days since TLE Epoch: 6/11/2022
Index Date Time (GOES-16) GOES-16 Lat,Lon TERRA Lat,Lon Distance(km) Time Diff (sec)
1 06/13/2022 03:18:32 -0.03, -75.20 0.12, -74.59 69.89 80
2 06/15/2022 03:03:37 -0.03, -75.20 0.71, -71.63 406.14 80
3 06/15/2022 15:24:52 0.03, -75.22 0.37, -76.79 178.77 80
4 06/17/2022 15:15:18 0.03, -75.23 -0.29, -73.84 158.20 80
5 06/18/2022 03:36:41 -0.02, -75.22 -0.83, -79.03 433.50 80
6 06/19/2022 15:03:03 0.02, -75.25 -0.90, -70.89 496.12 80
7 06/20/2022 03:24:26 -0.02, -75.24 -0.22, -76.08 95.32 80
8 06/22/2022 03:09:32 -0.02, -75.27 0.46, -73.13 243.99 80
9 06/22/2022 15:30:46 0.02, -75.29 0.62, -78.29 340.29 80
10 06/24/2022 15:21:11 0.02, -75.33 -0.00, -75.34 2.16 80
